Location: Pompeys Pillar
(45.9913°N, 107.9528°W)
Time: 04:31:26
(UTC+00:00)

Tiros 1 - Pass Details

Date: 05 June 2022
Orbit: 629 x 663 km, 48.4° (Epoch: 30 June)

Event Time Altitude Azimuth Distance (km) Brightness Sun altitude
Rises 06:28:37 0° 269° (W) 2,913 10.6 -20.8°
Reaches altitude 10° 06:30:58 10° 273° (W) 2,006 9.8 -20.9°
Maximum altitude 06:35:33 65° 355° (N) 694 7.5 -21.0°
Drops below altitude 10° 06:40:09 10° 78° (ENE) 2,015 9.7 -21.1°
Sets 06:42:30 0° 81° (E) 2,927 10.6 -21.2°
